Location: Unspecified
(41.1751°N, 0.0000°E)
Time: 18:27:20
(UTC+00:00)

A-11 Canister half - Visible Passes

Search period start: 04 April 2026 00:00
Search period end: 14 April 2026 00:00
Orbit: 1513 x 1686 km, 47.2° (Epoch: 28 March)

Date Brightness Start Highest point End Pass type
(mag) Time Alt. Az. Time Alt. Az. Time Alt. Az.
10 Apr 10.7 05:02:41 10° S 05:10:04 27° SE 05:17:36 10° ENE visible
11 Apr 10.7 04:40:02 10° S 04:47:08 25° SE 04:54:22 10° ENE visible
12 Apr 10.7 04:17:23 10° S 04:24:12 23° SE 04:31:06 10° E visible
13 Apr 10.7 03:54:48 10° S 04:01:16 22° SE 04:07:49 10° E visible
